Location: ????????
(48.4751°N, 37.6926°E)
Time: 13:10:23
(UTC+00:00)

Cosmos 1844 - Pass Details

Date: 20 January 2021
Orbit: 821 x 869 km, 70.9° (Epoch: 27 February)

Event Time Altitude Azimuth Distance (km) Brightness Sun altitude
Rises 16:04:29 0° 193° (SSW) 3,371 7.1 -18.7°
Reaches altitude 10° 16:06:55 10° 189° (S) 2,448 6.3 -19.1°
Maximum altitude 16:12:25 58° 112° (ESE) 986 3.7 -20.0°
Enters shadow 16:14:48 33° 49° (NE) 1,391 4.4 -20.4°
